• Processing (Info)

  • MPEC 2023-W24 : 2023 TK124

    The following Minor Planet Electronic Circular may be linked-to from your own Web pages, but must not otherwise be redistributed electronically.

    A form allowing access to any MPEC is at the bottom of this page.


    Read MPEC 2023-W23 Read MPEC 2023-W25


    M.P.E.C. 2023-W24                             Issued 2023 November 19, 00:04 UT
    
         The Minor Planet Electronic Circulars contain information on unusual
             minor planets, routine data on comets and natural satellites,
             and occasional editorial announcements.  They are published
        on behalf of Division F of the International Astronomical Union by the
              Minor Planet Center, Smithsonian Astrophysical Observatory,
                              Cambridge, MA 02138, U.S.A.
    			  
                 Prepared using the Tamkin Foundation Computer Network
    
                                  MPC@CFA.HARVARD.EDU
                URL https://www.minorplanetcenter.net/    ISSN 1523-6714
    
                                   2023 TK124                                
    
    
    Observations:
         K23TC4K* C2023 10 09.31302923 11 05.931+15 51 21.55         22.46wXEW024F52
         K23TC4K  C2023 10 09.32549123 11 04.594+15 51 35.14         22.38wXEW024F52
         K23TC4K  C2023 10 09.33801923 11 03.228+15 51 48.65         22.58wXEW024F52
         K23TC4K  C2023 11 02.32269222 42 12.046+25 31 08.01         22.05GVEW024F51
         K23TC4K  C2023 11 02.34341922 42 10.792+25 31 48.59         22.24GVEW024F51
         K23TC4K  C2023 11 02.35378622 42 10.152+25 32 08.92         22.18GVEW024F51
         K23TC4K  C2023 11 02.35633522 42 09.999+25 32 13.98         21.02GVEW024F52
         K23TC4K  C2023 11 17.22591022 43 09.760+36 47 37.42         21.38wXEW024F51
         K23TC4K  C2023 11 17.23806122 43 10.013+36 48 21.37         21.85wXEW024F51
         K23TC4K  C2023 11 17.26081422 43 10.496+36 49 43.75         21.43wXEW024F51
         K23TC4K KB2023 11 18.04503 22 44 02.39 +37 37 52.8          21.0 GVEW024734
         K23TC4K KB2023 11 18.05984 22 44 02.94 +37 38 47.7          20.7 GVEW024734
         K23TC4K KB2023 11 18.07428 22 44 03.46 +37 39 41.6          20.8 GVEW024734
         K23TC4K KC2023 11 18.10042322 44 03.63 +37 41 16.8          21.0 GVEW024H21
         K23TC4K KC2023 11 18.10342722 44 03.78 +37 41 27.4          21.3 GVEW024H21
         K23TC4K  C2023 11 18.30006622 44 16.826+37 54 19.78         21.22GVEW024F52
         K23TC4K KC2023 11 18.78124 22 44 54.89 +38 24 46.8                VEW024204
         K23TC4K KC2023 11 18.80749 22 44 56.09 +38 26 28.5          20.9 GVEW024204
    
    Observer details:
    204 Schiaparelli Observatory.  Observers L. Buzzi, G. Galli.  0.84-m f/3.5
        reflector + CCD.
    734 Farpoint Observatory, Eskridge.  Observers D. Cromer, G. Hug, D. Goodin,
        R. Valentine.  Measurer D. Cromer.  0.69-m f/3.54 reflector + CMO.
    F51 Pan-STARRS 1, Haleakala.  Observers J. Herman, T. Lowe, P. Minguez, A.
        Schultz, I. Smith.  Measurers K. Chambers, T. de Boer, J. Fairlamb, H.
        Gao, M. Huber, C.-C. Lin, E. Magnier, Y. Ramanjooloo, R. Wainscoat, R.
        Weryk.  1.8-m Ritchey-Chretien + CCD.
    F52 Pan-STARRS 2, Haleakala.  Observers J. Bulger, T. Lowe, A. Schultz, I.
        Smith, J. Herman, P. Minguez.  Measurers K. Chambers, S. Chastel, T. de
        Boer, J. Fairlamb, H. Gao, M. Huber, C.-C. Lin, E. Magnier, Y.
        Ramanjooloo, R. Wainscoat, R. Weryk.  1.8-m Ritchey-Chretien + CCD.
    H21 Astronomical Research Observatory, Westfield.  Observer R. Holmes.
        Measurers T. Linder, R. Holmes, L. Horn.  1.3-m f/4.0 astrograph + CCD.
    
    Orbital elements:
    2023 TK124                                               Earth MOID = 0.0708 AU
    Epoch 2023 Sept. 13.0 TT = JDT 2460200.5                Bell                    
    M 330.18789              (2000.0)            P               Q                  
    n   0.36612559     Peri.  117.87365     +0.35712653     -0.93257244             
    a   1.9351560      Node   311.10273     +0.83054950     +0.34282527             
    e   0.4705623      Incl.    4.00459     +0.42737357     +0.11304631             
    P   2.69           H   24.15          G   0.15           U   6                  
    Residuals in seconds of arc
    231009 F52  0.1+  0.1+    231102 F52  0.1-  0.1+    231118 734  0.2+  0.2+
    231009 F52  0.1+  0.0     231117 F51  0.0   0.1+    231118 H21 (0.7-  0.4+)
    231009 F52  0.2-  0.1-    231117 F51  0.1+  0.2-    231118 H21  0.3-  0.1-
    231102 F51  0.0   0.0     231117 F51  0.2+  0.2+    231118 F52  0.1+  0.2-
    231102 F51  0.2+  0.1-    231118 734 (0.5-  1.8+)   231118 204  0.2+  0.1-
    231102 F51  0.1-  0.0     231118 734  0.0   0.7+    231118 204  0.0   0.3+
    
    Ephemeris:
    2023 TK124               a,e,i = 1.94, 0.47, 4                   q = 1.0245
    Date    TT    R. A. (2000) Decl.     Delta      r    Elong.  Phase     V
    2023 10 20    22 55 34.9 +19 25 06   0.1839  1.1432   140.1    34.0    22.2
    ...
    2023 11 04    22 41 17.1 +26 29 19   0.1420  1.0794   124.8    49.0    21.9
    ...
    2023 11 12    22 40 03.2 +32 03 04   0.1221  1.0542   118.8    55.4    21.7
    ...
    2023 11 18    22 43 58.9 +37 35 00   0.1080  1.0401   115.7    58.9    21.5
    2023 11 19    22 45 12.4 +38 39 11   0.1057  1.0382   115.4    59.3    21.5
    2023 11 20    22 46 38.1 +39 46 17   0.1035  1.0364   115.1    59.7    21.4
    ...
    2023 11 26    23 00 54.2 +47 36 19   0.09087 1.0282   114.6    60.8    21.2
    ...
    2023 12 04    23 52 00.4 +61 05 11   0.07764 1.0246   118.1    58.1    20.7
    ...
    2023 12 19    06 21 24.7 +65 49 24   0.07524 1.0404   137.2    40.0    20.2
    
    M. P. C. Staff               (C) Copyright 2023 MPC           M.P.E.C. 2023-W24
    


    Read MPEC 2023-W23 Read MPEC 2023-W25


    MPEC number:

    Enter an MPEC number in one of the following forms:

    • 1997-B01 (the full form)
    • J97B01 (the packed version of the full form)
    • B01 (the abbreviated form)